SCP
0 0 0 0 0 0 0 0 0 0 0 0 0 0 1 1 1 1 1 1 0 0 0 1 1 1 2 2 2 2 2 1 1 1 2 2 2 2
0 0 0 0 0 0 0 0 0 0 0 0 0 0 1 1 1 1 1 1 0 0 0 0 1 1 1 1 1 1 1 1 1 1 2 2 2 1
0 0 0 0 0 0 0 0 0 0 0 0 0 0 1 1 1 1 1 1 1 0 0 0 0 0 0 1 1 1 1 1 1 1 1 1 1 1
0 0 0 0 0 0 0 0 0 0 0 0 0 0 1 1 1 1 1 1 1 0 0 0 0 0 0 0 0 0 0 0 0 0 1 1 0 0
0 0 0 0 0 0 0 0 0 0 0 0 0 0 1 1 1 1 1 1 1 0 0 0 0 0 0 0 0 0 0 0 0 0 0 0 0 0
0 0 0 0 0 0 0 0 0 0 0 0 0 0 0 1 1 1 1 1 1 1 0 0 0 0 0 0 0 0 0 0 0 0 0 0 0 0
0 0 0 0 0 0 0 0 0 0 0 0 0 0 1 1 1 1 1 1 1 1 1 1 0 0 0 0 0 0 0 1 0 0 0 0 0 0
0 0 0 0 0 0 0 0 0 0 0 0 0 0 0 1 1 1 1 0 0 0 0 0 0 0 0 0 0 0 0 0 0 0 0 0 0 0
0 0 0 0 0 0 0 0 0 0 0 0 0 0 0 0 0 0 0 0 0 0 0 0 0 0 0 0 0 0 0 0 0 0 0 0 0 0
0 0 0 0 0 0 0 0 0 0 0 0 0 0 0 0 0 0 0 0 0 0 0 0 0 0 0 0 0 0 0 0 0 0 0 0 0 0
0 0 0 0 0 0 0 0 0 0 0 0 0 0 0 0 0 0 0 0 0 0 0 0 0 0 0 0 0 0 0 0 0 0 0 0 0 0
0 0 0 0 0 0 0 0 0 0 0 0 0 0 0 0 0 0 0 0 0 0 0 0 0 0 0 0 0 0 0 0 0 0 0 0 0 0
0 0 0 0 0 0 0 0 0 0 0 0 0 0 0 0 0 0 0 0 0 0 0 0 0 0 0 0 0 0 0 0 0 0 0 0 0 0
0 0 0 0 0 0 0 0 0 0 0 0 0 0 0 0 0 0 0 0 0 0 0 0 0 0 0 0 0 0 0 0 0 0 0 0 0 0
0 0 0 0 0 0 0 0 0 0 0 0 0 0 0 0 0 0 0 0 0 0 0 0 0 0 0 0 0 0 0 0 0 0 0 0 0 0
0 0 0 0 0 0 0 0 0 0 0 0 0 0 0 0 0 0 0 0 0 0 0 0 0 0 0 0 0 0 0 0 0 0 0 0 0 0
0 0 0 0 0 0 0 0 0 0 0 0 0 0 0 0 0 0 0 0 0 0 0 0 0 0 0 0 0 0 0 0 0 0 0 0 0 0
0 0 0 0 0 0 0 0 0 0 0 0 0 0 0 0 0 0 0 0 0 0 0 0 0 0 0 0 0 0 0 0 0 0 0 0 0 0
0 0 0 0 0 0 0 0 0 0 0 0 0 0 0 0 0 0 0 0 0 0 0 0 0 0 0 0 0 0 0 0 0 0 0 0 0 0
0 0 0 0 0 0 0 0 0 0 0 0 0 0 0 0 0 0 0 0 0 0 0 0 0 0 0 0 0 0 0 0 0 0 0 0 0 0
0 0 0 0 0 0 0 0 0 0 0 0 0 0 0 0 0 0 0 0 0 0 0 0 0 0 0 0 0 0 0 0 0 0 0 0 0 0
0 0 0 0 0 0 0 0 0 0 0 0 0 0 0 0 0 0 0 0 0 0 0 0 0 0 0 0 0 0 0 0 0 0 0 0 0 0
0 0 0 0 0 0 0 0 0 0 0 0 0 0 0 0 0 0 0 0 0 0 0 0 0 0 0 0 0 0 0 0 0 0 0 0 0 0
Wind_Speed
12 12 10 8 7 7 7 8 8 10 11 12 9 8 7 7 7 9 10 11 14 14 13 14 16 17 18 18 19 18 16 16 16 15 15 15 14 13
10 12 11 9 8 7 7 7 8 9 11 9 8 6 6 5 6 8 6 9 11 13 13 13 14 14 15 16 18 18 18 18 17 17 17 16 15 13
12 12 12 12 9 8 7 7 7 8 10 10 7 5 6 6 5 5 6 6 7 13 15 16 16 16 17 17 18 18 18 17 15 15 16 16 15 13
13 12 12 10 12 9 7 7 7 8 9 10 7 6 6 6 5 6 6 5 7 13 15 16 16 16 17 16 16 16 15 14 13 13 14 14 13 12
11 11 11 11 11 10 9 7 6 7 7 8 7 5 3 4 6 6 7 6 7 10 13 15 16 16 17 16 16 16 14 14 14 12 12 11 10 10
9 10 10 10 11 12 9 8 7 7 6 7 7 5 4 5 6 7 7 6 7 8 9 11 14 15 16 17 16 15 14 14 14 14 13 12 10 9
9 9 9 12 15 13 10 8 6 4 5 5 6 5 5 6 7 6 8 8 7 7 9 9 10 9 10 13 14 15 15 14 14 14 14 13 11 10
9 9 9 10 13 15 17 17 14 8 5 4 3 3 4 4 5 6 8 9 5 4 8 7 7 8 8 8 13 16 16 17 16 15 15 14 13 11
8 9 8 9 11 9 12 15 17 19 15 8 5 4 4 3 2 7 7 8 6 6 8 7 6 7 7 10 17 17 17 17 17 16 14 13 12 10
8 9 10 9 9 10 8 9 11 14 16 11 9 10 9 7 5 2 7 9 8 5 4 6 6 7 8 9 16 17 17 16 15 14 13 12 11 9
8 9 10 8 11 11 9 9 10 10 14 20 21 21 24 24 14 5 5 8 5 3 4 5 6 6 7 7 10 15 15 14 13 12 12 10 9 6
7 8 11 10 11 12 9 9 10 10 10 12 14 17 17 19 22 13 6 4 5 4 3 4 5 5 5 4 4 6 8 10 11 11 10 8 5 2
7 7 7 11 13 15 13 11 12 10 9 10 10 11 12 12 13 13 12 8 6 5 3 3 4 4 5 5 3 3 4 4 5 6 7 7 5 2
8 6 6 13 16 17 14 15 15 11 8 8 9 10 10 10 10 12 13 13 12 10 8 5 4 4 5 5 5 5 4 3 3 3 3 4 3 2
8 12 13 16 15 13 17 17 13 9 8 9 9 9 8 8 8 8 10 11 13 12 11 11 7 5 4 5 6 6 5 4 3 2 1 0 0 1
7 11 15 17 14 14 13 11 10 10 9 8 8 8 7 7 8 7 6 6 7 9 11 11 9 8 7 7 6 6 5 4 3 1 0 1 2 2
7 6 7 7 8 8 8 8 8 8 8 8 8 7 7 8 8 7 7 7 7 7 7 7 7 7 8 6 5 5 4 4 3 1 1 2 3 3
8 7 8 8 8 8 7 8 8 8 8 7 7 7 7 7 7 7 7 7 7 6 6 5 3 4 5 7 7 4 4 3 2 1 2 3 4 3
8 7 7 7 7 6 6 6 6 7 6 7 7 7 6 6 6 6 6 6 6 6 6 6 5 2 3 4 5 6 4 2 2 2 2 3 5 6
7 6 6 6 6 5 5 5 5 5 5 5 5 5 6 5 5 5 5 6 5 5 5 5 6 7 5 3 2 3 4 3 3 3 4 4 6 8
6 5 5 5 5 5 4 4 4 4 4 4 4 4 4 4 4 4 4 5 4 4 4 4 5 5 3 1 1 0 1 2 4 4 5 5 5 5
4 4 4 4 4 4 3 3 3 2 2 2 3 2 2 3 3 3 3 3 2 3 3 2 2 2 2 2 2 3 3 4 4 8 10 10 6 5
3 3 3 3 3 3 3 3 3 3 2 2 2 2 2 2 2 2 2 2 2 2 2 2 1 1 1 2 3 4 5 6 5 5 5 8 13 17
Wind_Direction
311 307 299 288 282 277 271 264 263 263 258 253 245 239 238 237 222 221 228 206 202 204 202 199 193 189 188 183 181 176 164 153 150 152 155 156 151 146
315 314 313 303 292 281 274 269 260 259 263 262 255 246 235 231 216 218 202 160 163 160 152 149 149 149 151 153 152 147 146 145 145 149 152 150 145 141
321 321 320 316 305 291 280 270 265 259 258 259 254 246 233 221 192 183 158 150 141 134 129 124 121 121 122 127 132 135 139 138 139 144 147 146 142 140
324 325 326 328 323 312 298 282 270 260 258 257 243 229 224 210 179 165 147 140 136 132 129 124 120 119 119 121 123 124 127 128 127 132 137 139 140 140
325 326 328 333 332 326 315 300 288 272 255 254 249 223 210 191 168 148 135 129 131 136 134 131 129 127 125 125 124 124 126 125 121 119 120 123 130 133
331 330 331 336 336 333 325 315 299 286 268 251 244 221 194 182 165 155 144 138 138 141 134 130 131 130 133 133 130 126 125 124 123 121 116 113 114 116
336 334 333 343 346 345 345 342 327 304 290 264 242 219 190 178 167 160 148 136 125 140 134 136 136 132 130 130 127 128 126 124 123 122 117 111 106 101
339 338 338 346 351 352 359 9 13 4 332 302 265 228 187 170 154 153 144 140 130 127 124 119 132 132 134 133 132 128 124 122 120 116 112 107 102 98
344 342 344 348 357 356 5 16 19 24 27 18 15 15 22 16 145 158 157 146 124 135 121 105 111 113 110 114 121 121 120 119 117 114 111 108 105 101
348 344 344 348 8 9 13 25 26 25 29 33 31 32 31 20 14 85 115 99 87 62 94 111 111 100 97 100 106 109 111 111 113 114 113 111 108 102
348 346 347 350 22 23 24 33 34 28 27 39 42 39 38 38 34 55 109 129 114 66 36 103 118 93 71 74 94 99 101 106 110 112 112 111 111 119
350 346 353 10 38 40 36 38 38 31 28 32 36 35 35 35 37 34 29 97 108 97 46 88 123 121 104 66 70 91 93 98 103 106 107 104 108 157
349 347 359 31 54 55 51 48 45 38 36 39 40 37 37 36 37 38 36 42 70 78 50 87 114 109 114 121 109 101 108 119 117 110 101 91 70 16
347 347 20 51 61 58 53 48 45 41 40 43 43 39 37 37 41 46 49 53 56 58 44 52 92 118 122 123 132 138 126 126 131 128 121 123 120 91
8 30 54 58 59 54 49 46 41 38 39 43 44 42 38 38 41 51 59 63 61 55 47 48 62 83 92 118 131 144 142 133 124 122 126 155 278 272
26 37 51 57 56 52 47 43 39 39 39 40 40 40 38 38 38 35 43 52 61 58 50 48 51 67 83 93 109 120 121 131 143 132 138 279 276 271
33 46 47 47 48 48 46 43 40 38 39 36 36 37 38 40 38 34 39 53 62 61 53 49 56 63 61 75 102 109 118 119 113 66 321 289 269 256
44 47 48 47 45 42 41 41 38 36 34 35 35 35 35 35 39 39 44 50 57 55 51 44 71 110 104 68 40 94 107 100 79 5 310 296 290 279
45 45 44 42 41 39 38 38 38 36 31 33 34 31 32 35 37 38 41 48 52 52 45 34 28 43 116 116 86 37 55 56 7 329 315 303 297 300
39 40 38 36 34 32 30 29 29 30 30 30 32 29 25 28 32 34 37 36 41 46 51 47 38 27 32 48 67 85 43 360 343 326 321 308 292 285
33 31 29 28 28 24 21 19 16 20 20 13 23 21 17 19 23 23 29 31 27 32 37 44 39 4 343 331 274 359 42 4 314 303 312 308 304 294
23 21 18 13 11 9 5 1 357 1 3 352 358 359 356 355 359 356 358 360 7 12 8 12 5 340 331 330 325 323 316 321 293 276 265 259 278 296
3 358 354 349 345 343 337 332 322 320 320 317 313 311 307 299 299 299 296 295 305 316 317 325 330 322 316 311 303 301 303 306 304 301 286 268 262 264